�N����,����,�~����,�C��,���x,�C��,����,���ϕ���,�ő�u�ԕ���,�ő厞����,���˗�,�I�_���x,�n�����x,�ő啗���N��,DTYPE
"22/03/04","00:10",0.0,4.3,88.5,1013.8,302.6,3.2,4.2,323.7,0.00,2.6,7.7,"00:03:04",1
"22/03/04","00:20",0.0,4.2,88.7,1013.8,315.2,3.2,4.4,327.9,0.00,2.5,7.5,"00:15:36",1
"22/03/04","00:30",0.0,3.9,88.8,1013.8,324.7,2.7,3.7,336.3,0.00,2.3,7.4,"00:20:56",1
"22/03/04","00:40",0.0,3.8,89.0,1013.5,324.2,2.5,3.5,330.0,0.00,2.2,7.7,"00:34:32",1
"22/03/04","00:50",0.0,3.5,89.3,1013.8,301.8,2.5,3.6,322.5,0.00,1.9,7.4,"00:47:20",1
"22/03/04","01:00",0.0,3.3,89.7,1013.8,314.7,2.7,4.1,320.8,0.00,1.8,7.2,"00:52:32",1
"22/03/04","01:10",0.0,3.0,90.0,1013.5,311.9,2.1,2.9,322.6,0.00,1.6,7.5,"01:03:44",1
"22/03/04","01:20",0.0,3.0,90.5,1013.5,326.8,2.3,3.5,334.0,0.00,1.6,7.4,"01:19:44",1
"22/03/04","01:30",0.0,3.2,90.8,1013.8,327.5,3.0,4.2,326.8,0.00,1.9,7.0,"01:23:44",1
"22/03/04","01:40",0.0,3.4,91.1,1013.8,319.1,3.5,5.1,315.6,0.00,2.1,7.2,"01:33:28",1
"22/03/04","01:50",0.0,2.9,91.4,1013.8,320.0,2.8,4.5,316.0,0.00,1.7,7.2,"01:49:52",1
"22/03/04","02:00",0.0,2.8,91.7,1014.0,322.1,2.7,5.7,319.0,0.00,1.6,7.2,"01:53:12",1
"22/03/04","02:10",0.0,2.6,92.0,1013.8,326.9,2.6,3.6,329.6,0.00,1.5,7.1,"02:09:52",1
"22/03/04","02:20",0.0,2.8,92.4,1013.8,323.7,3.5,4.5,326.7,0.00,1.7,7.2,"02:18:48",1
"22/03/04","02:30",0.0,2.9,92.3,1014.0,322.5,4.2,5.7,328.1,0.00,1.8,7.2,"02:26:56",1
"22/03/04","02:40",0.0,2.7,92.4,1013.8,322.0,3.6,4.7,331.2,0.00,1.6,7.1,"02:32:56",1
"22/03/04","02:50",0.0,2.4,92.6,1013.8,327.5,2.7,4.4,336.3,0.00,1.4,7.1,"02:41:04",1
"22/03/04","03:00",0.0,2.4,92.8,1014.0,315.1,3.2,5.5,316.3,0.00,1.4,7.1,"02:53:44",1
"22/03/04","03:10",0.0,2.2,92.9,1013.5,320.7,2.7,3.6,335.2,0.00,1.2,6.8,"03:09:28",1
"22/03/04","03:20",0.0,2.1,93.1,1013.3,324.2,2.5,4.5,333.9,0.00,1.1,6.9,"03:10:56",1
"22/03/04","03:30",0.0,1.9,93.2,1013.3,322.3,2.3,3.7,331.6,0.00,1.0,6.9,"03:28:56",1
"22/03/04","03:40",0.0,1.8,93.4,1013.3,317.0,2.1,2.9,316.9,0.00,0.9,6.8,"03:34:08",1
"22/03/04","03:50",0.0,1.5,93.5,1013.3,302.2,1.1,1.8,301.4,0.00,0.6,6.8,"03:40:48",1
"22/03/04","04:00",0.0,1.2,93.8,1013.5,295.6,1.6,2.4,324.6,0.00,0.4,6.9,"03:53:28",1
"22/03/04","04:10",0.0,1.3,94.0,1013.3,320.1,2.6,3.3,331.3,0.00,0.5,6.7,"04:08:24",1
"22/03/04","04:20",0.0,1.5,94.1,1013.5,324.6,2.7,3.9,329.2,0.00,0.7,6.7,"04:12:00",1
"22/03/04","04:30",0.0,1.2,94.2,1013.5,319.4,1.0,2.5,312.7,0.00,0.4,6.7,"04:20:16",1
"22/03/04","04:40",0.0,0.9,94.5,1013.3,324.4,1.8,2.6,332.1,0.00,0.2,6.7,"04:35:20",1
"22/03/04","04:50",0.0,0.6,94.6,1013.5,303.2,1.1,1.7,332.5,0.00,-0.1,6.7,"04:45:44",1
"22/03/04","05:00",0.0,0.8,94.9,1013.5,4.3,0.6,1.2,304.1,0.00,0.1,6.6,"04:58:32",1
"22/03/04","05:10",0.0,0.6,95.1,1013.5,320.7,1.6,3.3,339.1,0.00,-0.1,6.8,"05:08:56",1
"22/03/04","05:20",0.0,1.6,95.1,1013.8,324.0,3.0,3.5,316.1,0.00,0.9,6.7,"05:18:56",1
"22/03/04","05:30",0.0,1.6,95.1,1014.0,322.2,2.6,3.4,320.2,0.00,0.9,6.4,"05:22:16",1
"22/03/04","05:40",0.0,1.9,95.5,1014.0,326.2,3.2,5.2,319.2,0.00,1.3,6.6,"05:38:56",1
"22/03/04","05:50",0.0,2.1,95.3,1014.0,318.5,3.6,4.7,325.1,0.00,1.5,6.4,"05:41:36",1
"22/03/04","06:00",0.0,1.8,95.5,1013.8,323.2,2.1,3.3,343.5,0.00,1.2,6.3,"05:50:32",1
"22/03/04","06:10",0.0,1.6,95.6,1013.8,318.6,1.6,2.5,316.6,0.00,1.0,6.3,"06:03:12",1
"22/03/04","06:20",0.0,1.6,95.8,1014.0,327.1,1.6,2.5,325.0,0.00,1.0,6.2,"06:13:28",1
"22/03/04","06:30",0.0,1.1,95.9,1013.8,284.5,0.7,1.3,258.7,0.00,0.6,6.3,"06:20:48",1
"22/03/04","06:40",0.0,0.7,96.0,1014.2,318.2,1.0,1.8,321.2,0.00,0.2,6.3,"06:36:16",1
"22/03/04","06:50",0.0,0.7,96.4,1014.0,329.3,1.3,2.5,322.2,0.00,0.2,6.3,"06:49:28",1
"22/03/04","07:00",0.0,1.2,96.4,1013.8,327.9,2.8,4.4,334.2,0.00,0.7,6.4,"06:57:12",1
"22/03/04","07:10",0.0,1.6,96.4,1014.5,330.2,2.6,4.0,331.0,0.00,1.1,5.9,"07:05:52",1
"22/03/04","07:20",0.0,1.5,96.5,1014.2,332.0,2.3,3.9,332.9,0.00,1.0,6.1,"07:16:08",1
"22/03/04","07:30",0.0,1.7,96.5,1014.5,334.4,2.3,3.9,329.4,0.00,1.2,6.1,"07:21:52",1
"22/03/04","07:40",0.0,2.1,96.5,1014.7,330.3,3.1,4.7,343.8,0.01,1.6,6.3,"07:30:40",1
"22/03/04","07:50",0.0,2.4,96.2,1014.7,324.2,3.7,5.6,314.9,0.03,1.9,6.1,"07:49:12",1
"22/03/04","08:00",0.0,2.7,96.1,1014.7,322.3,3.6,5.1,333.8,0.04,2.2,6.0,"07:54:48",1
"22/03/04","08:10",0.0,3.2,96.0,1014.7,310.4,2.0,3.1,336.0,0.06,2.7,6.2,"08:00:24",1
"22/03/04","08:20",0.0,3.5,95.7,1015.4,305.7,2.3,3.3,319.2,0.09,2.9,6.1,"08:12:24",1
"22/03/04","08:30",0.0,4.5,95.4,1015.4,314.3,1.2,2.1,312.1,0.11,3.9,5.9,"08:20:08",1
"22/03/04","08:40",0.0,5.3,94.5,1015.6,327.1,1.1,2.1,342.9,0.14,4.5,6.0,"08:38:04",1
"22/03/04","08:50",0.0,5.7,93.6,1015.9,331.1,1.0,2.2,337.0,0.17,4.8,6.0,"08:42:06",1
"22/03/04","09:00",0.0,6.0,92.3,1016.1,2.1,0.7,1.8,105.2,0.20,4.9,5.9,"08:58:40",1
"22/03/04","09:10",0.0,6.1,90.8,1016.4,148.3,0.7,1.6,132.2,0.22,4.8,6.1,"09:00:26",1
"22/03/04","09:20",0.0,6.6,89.3,1016.4,139.9,0.6,1.2,308.8,0.25,5.0,6.2,"09:11:04",1
"22/03/04","09:30",0.0,6.7,86.9,1016.8,165.0,0.8,1.6,109.4,0.28,4.7,6.1,"09:26:12",1
"22/03/04","09:40",0.0,7.3,84.3,1016.8,220.9,1.0,2.0,258.7,0.30,4.9,5.9,"09:36:16",1
"22/03/04","09:50",0.0,7.9,81.7,1016.6,177.1,1.0,2.0,156.8,0.33,5.0,6.1,"09:47:12",1
"22/03/04","10:00",0.0,8.2,79.2,1016.8,166.6,1.0,2.5,147.6,0.35,4.9,6.4,"09:59:52",1
"22/03/04","10:10",0.0,8.5,76.5,1016.6,203.4,1.0,2.4,154.6,0.38,4.7,6.2,"10:00:56",1
"22/03/04","10:20",0.0,9.1,73.1,1016.4,243.0,1.1,2.2,271.8,0.40,4.6,6.2,"10:16:16",1
"22/03/04","10:30",0.0,9.2,69.9,1016.4,178.2,1.1,2.4,132.7,0.42,4.0,6.4,"10:22:40",1
"22/03/04","10:40",0.0,9.4,67.3,1016.1,77.5,1.3,2.8,115.7,0.43,3.7,6.5,"10:38:24",1
"22/03/04","10:50",0.0,9.3,65.8,1016.1,109.6,1.5,3.1,129.8,0.45,3.3,6.5,"10:45:36",1
"22/03/04","11:00",0.0,10.3,63.3,1015.9,259.0,1.3,3.4,233.5,0.47,3.7,6.5,"10:59:36",1
"22/03/04","11:10",0.0,10.7,60.4,1015.9,215.7,1.2,3.1,148.0,0.47,3.4,6.7,"11:06:56",1
"22/03/04","11:20",0.0,10.9,58.2,1015.6,191.8,1.6,3.5,125.3,0.49,3.1,6.7,"11:10:08",1
"22/03/04","11:30",0.0,11.0,55.6,1015.4,209.3,1.8,4.1,213.4,0.50,2.5,6.8,"11:28:48",1
"22/03/04","11:40",0.0,11.4,55.2,1015.4,225.7,1.3,2.9,161.6,0.50,2.8,7.0,"11:36:00",1
"22/03/04","11:50",0.0,11.5,52.7,1015.4,167.8,2.2,3.9,164.3,0.48,2.2,7.1,"11:45:12",1
"22/03/04","12:00",0.0,11.9,51.0,1015.4,172.2,1.5,3.4,152.3,0.46,2.1,7.1,"11:50:02",1
"22/03/04","12:10",0.0,11.6,48.7,1014.9,174.4,2.3,4.0,116.2,0.46,1.2,7.1,"12:04:48",1
"22/03/04","12:20",0.0,11.6,49.3,1014.9,166.8,2.7,4.5,139.4,0.46,1.4,7.4,"12:19:52",1
"22/03/04","12:30",0.0,11.2,49.5,1014.7,191.6,2.7,4.1,202.2,0.40,1.1,7.4,"12:24:00",1
"22/03/04","12:40",0.0,11.5,50.0,1014.2,180.6,2.3,4.2,227.5,0.39,1.5,7.6,"12:38:24",1
"22/03/04","12:50",0.0,11.3,49.8,1014.2,190.7,2.3,4.5,141.2,0.32,1.2,7.4,"12:48:40",1
"22/03/04","13:00",0.0,11.3,51.1,1013.8,182.0,2.5,4.2,131.2,0.30,1.6,7.8,"12:57:28",1
"22/03/04","13:10",0.0,11.1,50.6,1013.5,192.9,2.5,4.9,187.5,0.27,1.3,7.7,"13:03:52",1
"22/03/04","13:20",0.0,11.3,49.7,1013.3,185.0,2.3,3.7,132.5,0.27,1.2,7.9,"13:14:24",1
"22/03/04","13:30",0.0,11.5,48.3,1013.3,193.9,2.0,4.7,198.3,0.30,1.0,7.8,"13:28:40",1
"22/03/04","13:40",0.0,11.5,46.5,1012.8,162.7,2.8,6.3,145.6,0.31,0.5,8.0,"13:37:12",1
"22/03/04","13:50",0.0,11.2,46.6,1012.6,148.2,3.4,5.7,149.2,0.28,0.2,8.0,"13:48:56",1
"22/03/04","14:00",0.0,11.6,46.4,1011.9,170.0,2.7,4.7,194.4,0.28,0.5,8.0,"13:57:36",1
"22/03/04","14:10",0.0,11.7,46.3,1012.3,171.8,2.6,5.4,146.5,0.30,0.6,8.2,"14:04:40",1
"22/03/04","14:20",0.0,11.8,46.0,1011.9,174.8,2.0,4.5,143.3,0.26,0.6,8.2,"14:16:32",1
"22/03/04","14:30",0.0,12.0,45.8,1011.6,162.6,2.5,4.4,126.6,0.26,0.7,8.2,"14:25:36",1
"22/03/04","14:40",0.0,11.9,45.7,1011.6,170.0,2.5,4.1,139.7,0.26,0.6,8.4,"14:38:08",1
"22/03/04","14:50",0.0,11.8,46.6,1011.4,153.4,2.6,4.9,138.7,0.24,0.8,8.4,"14:48:32",1
"22/03/04","15:00",0.0,11.9,47.0,1011.6,149.1,2.3,4.8,132.6,0.22,1.0,8.6,"14:55:28",1
"22/03/04","15:10",0.0,11.9,46.2,1011.4,177.5,2.5,4.5,197.4,0.20,0.8,8.4,"15:01:04",1
"22/03/04","15:20",0.0,12.0,46.0,1011.4,155.5,2.1,4.9,123.1,0.21,0.8,8.5,"15:19:28",1
"22/03/04","15:30",0.0,11.7,45.9,1011.4,138.4,2.1,4.2,115.6,0.17,0.5,8.6,"15:26:16",1
"22/03/04","15:40",0.0,11.7,47.3,1011.4,134.5,1.8,3.9,127.2,0.14,0.9,8.7,"15:30:02",1
"22/03/04","15:50",0.0,11.6,45.9,1011.4,164.5,2.0,4.2,140.7,0.11,0.4,8.7,"15:43:44",1
"22/03/04","16:00",0.0,11.5,46.7,1011.4,177.9,2.3,4.0,190.1,0.09,0.5,8.7,"15:55:12",1
"22/03/04","16:10",0.0,11.5,46.0,1011.2,192.4,2.0,5.0,154.3,0.07,0.3,8.6,"16:08:32",1
"22/03/04","16:20",0.0,11.4,46.9,1010.9,189.4,2.5,4.7,135.4,0.07,0.5,8.7,"16:14:56",1
"22/03/04","16:30",0.0,11.3,46.0,1011.4,217.0,2.6,4.4,217.5,0.06,0.1,8.8,"16:25:44",1
"22/03/04","16:40",0.0,11.3,47.1,1010.7,218.0,2.0,3.2,241.2,0.05,0.5,8.8,"16:31:36",1
"22/03/04","16:50",0.0,11.1,47.3,1010.7,206.5,2.1,4.7,196.3,0.04,0.3,8.9,"16:49:44",1
"22/03/04","17:00",0.0,11.0,48.5,1010.7,213.4,2.2,3.4,199.8,0.03,0.6,9.0,"16:52:24",1
"22/03/04","17:10",0.0,10.9,49.1,1010.4,226.5,1.8,3.3,196.3,0.02,0.7,9.0,"17:00:40",1
"22/03/04","17:20",0.0,10.7,49.2,1010.9,242.1,1.8,3.3,243.6,0.01,0.5,8.9,"17:13:52",1
"22/03/04","17:30",0.0,10.7,49.6,1010.7,251.6,1.7,2.8,250.3,0.01,0.6,8.8,"17:21:20",1
"22/03/04","17:40",0.0,10.6,49.8,1010.9,270.2,2.2,3.7,264.4,0.00,0.6,8.9,"17:38:08",1
"22/03/04","17:50",0.0,10.4,49.3,1010.9,268.3,2.1,3.9,255.0,0.00,0.3,8.9,"17:48:56",1
"22/03/04","18:00",0.0,10.3,48.4,1011.2,249.3,2.0,4.2,241.9,0.00,-0.1,8.8,"17:58:56",1
"22/03/04","18:10",0.0,10.2,46.2,1011.4,264.8,2.2,4.0,246.2,0.00,-0.8,8.9,"18:03:44",1
"22/03/04","18:20",0.0,10.1,44.8,1011.6,264.9,2.2,4.4,254.2,0.00,-1.3,8.9,"18:13:36",1
"22/03/04","18:30",0.0,10.0,42.6,1011.4,278.3,2.1,3.6,264.6,0.00,-2.1,8.7,"18:24:24",1
"22/03/04","18:40",0.0,9.7,48.7,1011.6,317.2,2.2,3.1,339.5,0.00,-0.5,8.9,"18:36:08",1
"22/03/04","18:50",0.0,8.9,53.7,1011.4,319.3,2.0,2.8,330.5,0.00,0.1,8.8,"18:44:08",1
"22/03/04","19:00",0.0,8.4,58.5,1011.4,286.5,1.8,2.4,315.4,0.00,0.8,8.8,"18:58:48",1
"22/03/04","19:10",0.0,8.0,61.3,1011.6,282.4,2.0,2.5,270.3,0.00,1.1,8.7,"19:05:04",1
"22/03/04","19:20",0.0,7.7,63.0,1011.4,299.9,2.2,3.5,304.6,0.00,1.1,8.7,"19:17:52",1
"22/03/04","19:30",0.0,7.5,64.9,1011.4,322.4,2.1,2.9,315.8,0.00,1.4,8.7,"19:20:16",1
"22/03/04","19:40",0.0,7.0,67.1,1011.4,316.7,1.8,2.8,317.2,0.00,1.4,8.6,"19:35:44",1
"22/03/04","19:50",0.0,6.6,68.6,1011.2,295.5,1.7,2.2,294.8,0.00,1.3,8.6,"19:47:44",1
"22/03/04","20:00",0.0,6.8,69.9,1011.4,293.2,2.3,3.2,311.5,0.00,1.7,8.6,"19:51:12",1
"22/03/04","20:10",0.0,6.6,70.6,1011.4,290.8,2.2,2.7,309.3,0.00,1.7,8.5,"20:03:12",1
"22/03/04","20:20",0.0,6.6,71.1,1011.6,296.4,2.3,3.2,292.2,0.00,1.8,8.5,"20:17:04",1
"22/03/04","20:30",0.0,6.4,71.4,1011.4,309.5,2.1,2.8,320.7,0.00,1.6,8.6,"20:28:40",1
"22/03/04","20:40",0.0,6.2,71.8,1011.2,315.9,1.5,2.6,308.8,0.00,1.5,8.4,"20:30:08",1
"22/03/04","20:50",0.0,5.7,72.2,1011.2,315.3,1.7,2.9,317.6,0.00,1.1,8.3,"20:44:32",1
"22/03/04","21:00",0.0,5.4,73.1,1010.7,269.4,1.5,2.7,275.7,0.00,1.0,8.5,"20:59:20",1
"22/03/04","21:10",0.0,5.7,73.6,1010.4,307.7,3.4,5.0,319.1,0.00,1.4,8.3,"21:07:20",1
"22/03/04","21:20",0.0,5.4,73.9,1010.0,279.9,1.6,3.5,334.2,0.00,1.2,8.5,"21:10:32",1
"22/03/04","21:30",0.0,5.4,74.1,1010.4,302.2,2.0,3.7,329.1,0.00,1.2,8.4,"21:27:28",1
"22/03/04","21:40",0.0,5.1,74.4,1010.2,302.3,2.1,2.6,323.0,0.00,1.0,8.4,"21:30:08",1
"22/03/04","21:50",0.0,4.7,74.7,1010.2,304.9,2.5,3.6,306.6,0.00,0.6,8.3,"21:41:44",1
"22/03/04","22:00",0.0,4.4,75.0,1010.4,299.3,1.6,2.9,325.5,0.00,0.4,8.3,"21:50:40",1
"22/03/04","22:10",0.0,4.1,75.7,1010.4,302.7,2.0,2.7,300.1,0.00,0.2,7.9,"22:09:12",1
"22/03/04","22:20",0.0,4.2,76.2,1010.0,298.6,2.6,4.2,305.0,0.00,0.4,8.1,"22:13:20",1
"22/03/04","22:30",0.0,4.0,76.6,1009.3,288.3,1.6,2.2,311.9,0.00,0.3,8.1,"22:20:16",1
"22/03/04","22:40",0.0,3.8,77.2,1009.5,306.7,2.5,4.1,320.4,0.00,0.2,8.1,"22:38:08",1
"22/03/04","22:50",0.0,3.7,77.3,1009.5,307.7,1.6,3.5,323.8,0.00,0.1,8.1,"22:40:16",1
"22/03/04","23:00",0.0,3.0,77.7,1009.5,306.9,1.6,2.6,320.8,0.00,-0.5,8.1,"22:57:12",1
"22/03/04","23:10",0.0,3.0,78.7,1009.7,302.5,2.2,3.6,301.4,0.00,-0.3,8.0,"23:07:20",1
"22/03/04","23:20",0.0,3.4,78.6,1009.5,307.0,2.3,3.1,276.7,0.00,0.1,8.0,"23:10:24",1
"22/03/04","23:30",0.0,2.9,78.7,1009.3,311.5,1.8,2.5,303.5,0.00,-0.4,7.8,"23:25:04",1
"22/03/04","23:40",0.0,2.5,79.5,1009.0,321.3,2.0,2.7,320.6,0.00,-0.6,7.7,"23:30:02",1
"22/03/04","23:50",0.0,2.5,80.1,1009.0,306.8,2.3,3.2,316.5,0.00,-0.5,7.7,"23:47:44",1
"22/03/04","24:00",0.0,3.1,80.0,1008.6,313.2,2.6,4.5,315.2,0.00,0.0,7.6,"23:52:40",1
